LFR weather

La Fria Airport
Tachira, Venezuela

Public forecast

Using degrees Celsius for public forecast. Weather courtesy of forecast.io.

Current aviation weather report (METAR) for La Fria Airport

Report is more than 6 hours old.

Retrieved 2017/09/20 18:00 UTC (2 years ago):

SVLF 201800Z 00000KT 9999 SCT040 XX/XX Q1010

Closest aviation forecast (TAF) to La Fria Airport

Closest forecast is Camilo Daza International Airport, 23.5 nm (43.6 km) SW. Retrieved 2019/11/17 06:39 UTC (5 hours ago):

TAF TAF SKCC 170430Z 1706/1806 00000KT 9999 SCT020 SCT090 PROB40 TEMPO 1710/1712 5000 BR SCT010 BECMG 1715/1717 32012KT TX31/1719Z TN22/1711Z